Terminal Aerodrome Forecast
Issued by NWS Sterling, VA

Current Version | Previous Version | Text Only | Print | Product List | Glossary On
Versions: 1 2 3 4 5 6 7 8 9 10 11 12 13 14 15 16 17 18 19 20 21 22 23 24 25 26 27 28
000
FTUS41 KLWX 301928 AAA
TAFIAD
TAF AMD
KIAD 301928Z 3019/0124 12010KT P6SM -SHRA VCTS BKN040CB OVC070
     FM302100 VRB03KT P6SM VCSH SCT070
     FM010300 07007KT 5SM -SHRA OVC025
     FM010800 04013G18KT P6SM OVC008
     FM011700 03008KT P6SM BKN015
     FM012000 13006KT P6SM BKN050
     FM012100 19006KT P6SM BKN050=

USA.gov is the U.S. government's official web portal to all federal, state and local government web resources and services.